#timestamp,LO_Frequency,Hit,StdDev 
1611784815.6,286046990.1,Y
1611784835.5,286046995.6,P
1611784855.3,286046991.2,P
1611784875.1,286046995.1,N
1611784895.9,286046996.2,N
1611784915.7,286046992.0,Y
1611784935.6,286046989.9,P
1611784955.4,286046992.7,N
1611784975.2,286046992.1,P
1611784995.1,286046988.5,Y
1611784996.0,286046988.5,P
1611785015.8,286046998.4,N
1611785035.7,286046999.4,N
1611785055.5,286046992.7,N
1611785075.3,286046992.2,N
1611785095.2,286046992.1,N
1611785115.0,286046995.5,N
1611785115.9,286046995.5,N
1611785135.7,286047007.8,N
1611785155.6,286047018.2,Y
1611785175.4,286047028.8,P
1611785195.3,286047029.6,N
1611785215.1,286047028.7,N
1611785235.8,286047032.5,N
1611785255.7,286047035.3,N
1611785275.5,286047037.4,N
1611785295.3,286047038.9,N
1611785315.2,286047039.8,Y
1611785335.0,286047009.4,P
1611785335.9,286047009.4,N
1611785355.8,286047007.7,N
1611785375.6,286047007.6,N
1611785395.4,286046997.2,N
1611785415.3,286046993.5,N
1611785435.1,286046990.8,N
1611785455.9,286046987.6,N
1611785475.7,286046986.3,N
1611785495.5,286046986.6,N
1611785515.4,286046980.1,N
1611785535.2,286046988.0,N
1611785555.1,286046979.0,N
1611785556.0,286046979.0,N
1611785575.8,286046978.8,N
1611785595.6,286046966.4,N
1611785615.5,286046971.4,N
1611785635.3,286046972.4,N
1611785655.1,286046968.8,N
1611785675.9,286046976.1,N
1611785695.7,286046969.8,N
1611785715.6,286046965.0,N
1611785735.4,286046964.9,N
1611785755.2,286046970.5,N
1611785775.1,286046968.1,N
1611785776.0,286046968.1,N
1611785795.8,286046972.4,N
1611785815.6,286046970.2,N
1611785835.5,286046970.9,N
1611785855.3,286046979.8,N
1611785875.2,286046983.6,N
1611785895.9,286046980.5,N
1611785915.7,286046982.6,N
1611785935.6,286046987.0,N
1611785955.4,286046987.7,N
1611785975.2,286046996.3,N
1611785995.1,286046991.6,N
1611785996.0,286046991.6,N
1611786015.8,286046986.0,N
1611786035.7,286046985.7,N
1611786055.5,286046981.2,N
1611786075.3,286046974.2,N
1611786095.2,286046965.0,Y
1611786115.0,286046992.8,P
1611786115.9,286046992.8,N
1611786135.8,286046994.0,N
1611786155.6,286047004.3,N
1611786175.4,286047004.1,N
1611786195.3,286047012.4,N
1611786215.1,286047012.1,N
1611786235.8,286047004.8,N
1611786255.7,286047004.4,N
1611786275.5,286047010.6,N
1611786295.4,286047006.1,N
1611786315.2,286046997.9,N
1611786335.0,286046990.1,N
1611786335.9,286046990.1,N
1611786355.8,286047000.2,N
1611786375.6,286047009.0,N
1611786395.4,286047006.1,N
1611786415.3,286047007.7,N
1611786435.1,286047012.0,N
1611786455.9,286047010.9,N
1611786475.7,286047015.8,N
1611786495.5,286047015.7,N
1611786515.4,286047014.2,N
1611786535.2,286047016.5,N
1611786555.0,286047014.8,N
1611786556.0,286047014.8,N
1611786575.8,286047012.6,N
1611786595.6,286047023.9,N
1611786615.5,286047028.4,N
1611786635.3,286047021.2,N
1611786655.1,286047017.4,N
1611786675.9,286047014.6,N
1611786695.7,286047009.9,N
1611786715.6,286047011.1,N
1611786735.4,286047022.6,N
1611786755.2,286047018.5,N
1611786775.1,286047004.0,N
1611786776.0,286047004.0,N
1611786795.8,286046997.7,N
1611786815.6,286046992.9,N
1611786835.5,286046988.4,N
1611786855.3,286046989.9,N
1611786875.2,286046997.7,N
1611786895.9,286046999.5,N
1611786915.7,286047005.4,N
1611786935.6,286047000.1,N
1611786955.4,286047009.6,N
1611786975.3,286047009.5,N
1611786995.1,286047015.8,N
1611786996.0,286047015.8,N
1611787015.8,286047011.2,N
1611787035.7,286047019.9,N
1611787055.5,286047009.0,N
1611787075.3,286047012.4,N
1611787095.2,286047004.5,N
1611787115.0,286047003.3,N
1611787115.9,286047003.3,N
1611787135.8,286047001.3,N
1611787155.6,286047002.5,N
1611787175.4,286046999.8,N
1611787195.3,286047001.7,N
1611787215.1,286047006.9,N
1611787235.9,286047007.9,N
1611787255.7,286047008.7,N
1611787275.5,286047011.1,N
1611787295.4,286047014.0,N
1611787315.2,286047010.1,N
1611787335.0,286047010.3,N
1611787335.9,286047010.3,N
1611787355.8,286047014.4,N
1611787375.6,286047016.9,N
1611787395.5,286047006.3,N
1611787415.3,286047005.8,N
1611787435.1,286047006.7,N
1611787455.9,286047007.2,N
1611787475.7,286047004.6,N
1611787495.6,286047003.2,N
1611787515.4,286047002.3,N
1611787535.2,286047003.1,N
1611787555.1,286047006.7,N
1611787556.0,286047006.7,N
1611787575.8,286047004.7,N
1611787595.6,286047007.2,N
1611787615.5,286047009.3,N
1611787635.3,286047020.0,Y
1611787655.2,286047011.6,P
1611787675.0,286047009.8,P
1611787675.9,286047009.8,P
1611787695.8,286047021.3,Y
1611787715.6,286047005.2,P
1611787735.4,286047008.1,P
1611787755.3,286047010.8,P
1611787775.1,286047010.7,Y
1611787795.8,286047004.3,P
1611787815.7,286046997.8,N
1611787835.5,286046992.5,N
1611787855.4,286046988.4,N
1611787875.2,286046985.4,N
1611787895.0,286046985.4,N
1611787895.9,286046985.4,N
1611787915.8,286046989.2,N
1611787935.6,286046993.4,N
1611787955.4,286046989.7,N
1611787975.3,286046977.7,Y
1611787995.1,286046976.2,P
1611788015.9,286046978.9,N
1611788035.7,286046987.5,N
1611788055.5,286046995.4,N
1611788075.4,286047000.7,N
1611788095.2,286047001.9,N
1611788115.1,286047003.6,N
1611788116.0,286047003.6,N
1611788135.8,286047012.8,N
1611788155.6,286047017.5,N
1611788175.5,286047016.0,N
1611788195.3,286047019.3,N
1611788215.1,286047022.3,N
1611788235.9,286047020.5,N
1611788255.7,286047020.8,N
1611788275.6,286047007.8,N
1611788295.4,286047002.7,N
1611788315.2,286047001.1,N
1611788335.1,286046994.9,N
1611788336.0,286046994.9,N
1611788355.8,286047000.2,N
1611788375.6,286046999.3,N
1611788395.5,286047005.9,N
